[[{"header":{"parameterUnit":"m.s-1","parameterCategory":1,"la1":30.2991,"la2":30.254,"lo1":-89.0895,"lo2":-89.0444,"dy":0.0017,"dx":0.0017,"nx":28,"ny":28,"refTime":"2025-12-15T09:00:00:Z","depth":0,"parameterNumber":2,"parameterNumberName":"U-component_of_WINDS"},"data":[0,0,0,0,0,0,0,0,0,0,0,0,0,0,0,0,0,0,0,0,0,0,0,0,0,0,0,0,0,0,0,0,0,0,0,0,0,0,0,0,0,0,0,0,0,0,0,0,0,0,0,0,0,0,0,0,0,0,-2.8565,-2.8566,0,-2.8641,-2.8642,-2.8643,-2.8573,-2.857,-2.8567,-2.8564,-2.8641,-2.8646,-2.865,0,0,0,0,0,0,0,0,0,0,0,0,0,-2.8357,-2.8361,-2.8565,-2.8566,-2.8567,-2.8641,-2.8642,-2.8643,-2.8573,-2.857,-2.8566,-2.8563,-2.864,-2.8645,-2.8651,0,0,0,0,0,0,0,0,0,0,0,0,0,-2.8442,-2.8362,-2.8565,-2.8541,-2.854,-2.8641,-2.8642,-2.8644,-2.8574,-2.857,-2.8565,-2.8561,-2.8638,-2.8645,-2.8652,-2.878,0,0,-2.8673,-2.8676,0,0,0,0,0,0,0,0,-2.8437,-2.8449,-2.8544,-2.8543,-2.8542,-2.8593,-2.8597,-2.8689,-2.8575,-2.8561,-2.8564,-2.8559,-2.8629,-2.8636,-2.866,-2.8784,-2.8787,-2.8674,-2.8678,-2.8681,-2.8683,0,0,0,0,0,0,0,-2.8431,-2.8446,-2.8595,-2.8545,-2.8544,-2.8526,-2.8533,-2.8614,-2.8618,-2.8562,-2.8557,-2.8567,-2.8627,-2.8653,-2.8661,-2.8788,-2.8673,-2.868,-2.8684,-2.8687,-2.9018,-2.9023,0,0,0,0,0,0,-2.8428,-2.8441,-2.8593,-2.8598,-2.8478,-2.8533,-2.8541,-2.8581,-2.8617,-2.8618,-2.8571,-2.8563,-2.8643,-2.8653,-2.8663,-2.8814,-2.8681,-2.8687,-2.8691,-2.9014,-2.9019,-2.9024,0,0,0,0,0,0,-2.8424,-2.8442,-2.859,-2.8518,-2.8535,-2.8541,-2.8586,-2.8585,-2.861,-2.8623,-2.8623,-2.8596,-2.864,-2.8653,-2.8751,-2.8816,-2.8691,-2.8697,-2.9008,-2.9016,-2.9022,-2.9117,0,0,0,0,0,0,-2.8418,-2.8441,-2.8491,-2.852,-2.854,-2.8677,-2.859,-2.8589,-2.8623,-2.8614,-2.8647,-2.8649,-2.8638,-2.8741,-2.8758,-2.8823,-2.8702,-2.9003,-2.9012,-2.902,-2.9108,-2.9127,-2.9142,0,0,0,0,0,-2.8411,-2.8515,-2.8493,-2.8512,-2.8602,-2.8681,-2.8692,-2.8678,-2.8629,-2.8678,-2.8685,-2.8648,-2.8806,-2.8752,-2.877,-2.8838,-2.8998,-2.9009,-2.9019,-2.9101,-2.9123,-2.9142,0,0,0,0,0,0,-2.8493,-2.8518,-2.8495,-2.8611,-2.8645,-2.8669,-2.8731,-2.8702,-2.875,-2.874,-2.872,-2.8728,-2.883,-2.8844,-2.8783,-2.8963,-2.8894,-2.8909,-2.895,-2.8971,-2.8988,-2.8981,-2.8708,0,0,0,0,0,-2.8525,-2.8588,-2.8606,-2.8707,-2.8725,-2.8725,-2.8759,-2.8745,-2.8779,-2.8792,-2.8807,-2.8841,-2.8897,-2.8936,-2.8989,-2.9111,-2.9116,-2.9167,-2.9184,-2.9198,-2.921,-2.9272,-2.9295,-2.9058,-2.9058,-2.9058,0,0,-2.8591,-2.8612,-2.8653,-2.8724,-2.8748,-2.8812,-2.8737,-2.8809,-2.8856,-2.8803,-2.8895,-2.8908,-2.8944,-2.9053,-2.9102,-2.9068,-2.9276,-2.9211,-2.9222,-2.9226,-2.9285,-2.9308,-2.9328,-2.9065,-2.9064,-2.9063,0,0,-2.8743,-2.8767,-2.8852,-2.8878,-2.8915,-2.8915,-2.8935,-2.8964,-2.897,-2.9063,-2.9023,-2.9079,-2.9178,-2.9205,-2.9231,-2.9393,-2.9359,-2.9411,-2.9498,-2.956,-2.9578,-2.9595,-2.965,-2.967,-2.9423,-2.9424,-2.9424,0,-2.882,-2.8916,-2.89,-2.8974,-2.9005,-2.896,-2.9046,-2.9071,-2.9124,-2.9147,-2.9108,-2.923,-2.9251,-2.9365,-2.9404,-2.9429,-2.945,-2.9406,-2.9577,-2.9594,-2.9608,-2.9661,-2.9682,-2.9429,-2.9429,-2.9428,-2.9428,0,-2.9008,-2.9075,-2.9139,-2.9191,-2.923,-2.931,-2.9304,-2.9346,-2.9329,-2.9332,-2.9425,-2.9449,-2.9505,-2.9532,-2.9516,-2.9643,-2.962,-2.958,-2.951,-2.9637,-2.9686,-2.9706,-2.9438,-2.9436,-2.9434,-2.9433,0,0,-2.9213,-2.9254,-2.9278,-2.93,-2.9338,-2.9389,-2.9466,-2.9521,-2.9556,-2.9594,-2.9656,-2.9741,-2.9704,-2.9734,-2.972,-2.9775,-2.9898,-2.9727,-2.9728,-2.9756,-3.0037,-3.0065,-3.0088,-2.9877,-2.9881,-2.9884,-3.0032,0,-2.9364,-2.9498,-2.9485,-2.9612,-2.9672,-2.963,-2.9697,-2.9727,-2.9732,-2.9783,-2.9789,-2.9848,-2.9795,-2.9813,-2.9865,-2.9872,-2.9954,-2.9862,-2.9933,-2.9935,-2.9922,-3.0114,-3.0144,-3.0284,-3.0052,-3.0055,-3.0057,0,-2.9559,-2.9603,-2.9736,-2.9763,-2.9788,-2.9848,-2.9896,-2.9947,-2.9979,-2.9979,-3.0012,-2.9989,-3.0065,-2.9995,-3.0098,-3.0036,-3.0064,-3.0072,-3.0077,-3.0081,-3.0002,-3.012,-3.0328,-3.0348,-3.0088,-3.0085,-3.0083,0,-2.9692,-2.9785,-2.9876,-2.9896,-2.9931,-2.9973,-2.999,-3.0018,-3.0051,-3.0094,-3.0115,-3.0166,-3.0193,-3.0233,-3.0223,-3.0174,-3.0328,-3.0258,-3.0328,-3.0328,-3.036,-3.0358,-3.0572,-3.0384,-3.0383,-3.0383,-3.0382,0,-2.9861,-2.9943,-2.9936,-2.9991,-3.0081,-3.0066,-3.0155,-3.0166,-3.0191,-3.0247,-3.0215,-3.0268,-3.0253,-3.0306,-3.0299,-3.0384,-3.0397,-3.0397,-3.0394,-3.0399,-3.0398,-3.0415,-3.0404,-3.0388,-3.0387,-3.0386,-3.0385,0,-3.0024,-3.0023,-3.0118,-3.0143,-3.015,-3.0216,-3.0236,-3.0287,-3.029,-3.0361,-3.0377,-3.038,-3.044,-3.0435,-3.0502,-3.0498,-3.0602,-3.0588,-3.0591,-3.0587,-3.0656,-3.0648,-3.0886,-3.0916,-3.0711,-3.0713,-3.0714,0,-3.0131,-3.0192,-3.0223,-3.0258,-3.0277,-3.0335,-3.0368,-3.0355,-3.0392,-3.0432,-3.0479,-3.0535,-3.0579,-3.0676,-3.0684,-3.0735,-3.0721,-3.0801,-3.0728,-3.073,-3.0718,-3.0714,-3.0718,-3.0814,-3.0817,-3.0819,-3.082,0,-3.0319,-3.0315,-3.0365,-3.0415,-3.0456,-3.0494,-3.0529,-3.056,-3.055,-3.0592,-3.0652,-3.0687,-3.0755,-3.0811,-3.0859,-3.0874,-3.0845,-3.0843,-3.0862,-3.0865,-3.0863,-3.0862,-3.0626,-3.0837,-3.0836,-3.0834,-3.0833,-3.0833,-3.0455,-3.0507,-3.0536,-3.0592,-3.0617,-3.0651,-3.07,-3.0708,-3.0758,-3.0812,-3.0802,-3.0869,-3.0898,-3.096,-3.098,-3.1031,-3.1002,-3.103,-3.1036,-3.1042,-3.1049,-3.0857,-3.1041,-3.104,-3.104,-3.1039,-3.1039,0,-3.0639,-3.0656,-3.0708,-3.0757,-3.0801,-3.0771,-3.0808,-3.0846,-3.0906,-3.0936,-3.098,-3.1048,-3.1102,-3.1114,-3.1165,-3.1204,-3.1191,-3.1217,-3.1213,-3.1216,-3.1073,-3.1051,-3.1226,-3.1226,-3.1226,-3.1226,-3.1226,-3.1226,-3.074,-3.0825,-3.0825,-3.0922,-3.0938,-3.1003,-3.1027,-3.1056,-3.108,-3.1158,-3.1202,-3.121,-3.1232,-3.1284,-3.1331,-3.1334,-3.1352,-3.1383,-3.138,-3.1245,-3.1227,-3.1209,-3.1187,-3.1388,-3.1388,-3.1517,-3.1519,-3.152]},{"header":{"parameterUnit":"m.s-1","parameterCategory":1,"la1":30.2991,"la2":30.254,"lo1":-89.0895,"lo2":-89.0444,"dy":0.0017,"dx":0.0017,"nx":28,"ny":28,"refTime":"2025-12-15T09:00:00:Z","depth":0,"parameterNumber":3,"parameterNumberName":"V-component_of_WINDS"},"data":[0,0,0,0,0,0,0,0,0,0,0,0,0,0,0,0,0,0,0,0,0,0,0,0,0,0,0,0,0,0,0,0,0,0,0,0,0,0,0,0,0,0,0,0,0,0,0,0,0,0,0,0,0,0,0,0,0,0,-1.8364,-1.8364,0,-1.8333,-1.8333,-1.8333,-1.8303,-1.8303,-1.8302,-1.8302,-1.827,-1.8269,-1.8269,0,0,0,0,0,0,0,0,0,0,0,0,0,-1.8395,-1.8395,-1.8364,-1.8364,-1.8363,-1.8333,-1.8333,-1.8332,-1.8303,-1.8303,-1.8302,-1.8302,-1.827,-1.827,-1.8269,0,0,0,0,0,0,0,0,0,0,0,0,0,-1.8375,-1.8395,-1.8364,-1.8345,-1.8343,-1.8333,-1.8333,-1.8332,-1.8303,-1.8303,-1.8302,-1.8302,-1.827,-1.827,-1.8269,-1.8275,0,0,-1.8267,-1.8266,0,0,0,0,0,0,0,0,-1.8376,-1.8374,-1.8348,-1.8346,-1.8344,-1.8321,-1.8332,-1.8313,-1.8303,-1.8318,-1.8302,-1.8301,-1.8288,-1.8285,-1.8281,-1.8274,-1.8272,-1.8266,-1.8266,-1.8266,-1.8265,0,0,0,0,0,0,0,-1.8378,-1.8375,-1.8352,-1.8348,-1.8345,-1.8337,-1.8334,-1.8328,-1.8306,-1.8317,-1.8315,-1.8312,-1.8286,-1.8282,-1.828,-1.8272,-1.8266,-1.8266,-1.8265,-1.8265,-1.8266,-1.8266,0,0,0,0,0,0,-1.8382,-1.8376,-1.8353,-1.8351,-1.8359,-1.8337,-1.8333,-1.8329,-1.8306,-1.8302,-1.8312,-1.831,-1.8283,-1.8281,-1.8279,-1.8283,-1.8266,-1.8265,-1.8265,-1.8265,-1.8266,-1.8266,0,0,0,0,0,0,-1.8383,-1.838,-1.8354,-1.8363,-1.8359,-1.8337,-1.8333,-1.8329,-1.8324,-1.8303,-1.8298,-1.8311,-1.8283,-1.828,-1.8276,-1.8281,-1.8265,-1.8264,-1.8265,-1.8265,-1.8266,-1.8292,0,0,0,0,0,0,-1.8384,-1.8381,-1.8384,-1.8363,-1.8359,-1.8353,-1.8333,-1.8329,-1.8323,-1.832,-1.8301,-1.8297,-1.8282,-1.8277,-1.8275,-1.828,-1.8263,-1.8264,-1.8265,-1.8266,-1.8291,-1.8294,-1.8296,0,0,0,0,0,-1.8385,-1.8393,-1.8384,-1.8382,-1.8362,-1.8353,-1.835,-1.8333,-1.8324,-1.8326,-1.8311,-1.8298,-1.8281,-1.8277,-1.8274,-1.8279,-1.8264,-1.8265,-1.8266,-1.829,-1.8293,-1.8296,0,0,0,0,0,0,-1.8415,-1.839,-1.838,-1.8382,-1.837,-1.8348,-1.8351,-1.8338,-1.8328,-1.8326,-1.8304,-1.83,-1.8298,-1.8288,-1.8284,-1.8283,-1.827,-1.8271,-1.8289,-1.8292,-1.8295,-1.8297,-1.8263,0,0,0,0,0,-1.8422,-1.8417,-1.8395,-1.8399,-1.8393,-1.8373,-1.8368,-1.8356,-1.8342,-1.8337,-1.8323,-1.831,-1.8301,-1.8297,-1.8288,-1.8289,-1.8283,-1.8291,-1.8294,-1.8296,-1.8297,-1.8294,-1.8297,-1.827,-1.827,-1.827,0,0,-1.8436,-1.8422,-1.842,-1.8404,-1.8394,-1.8388,-1.8369,-1.8365,-1.836,-1.8337,-1.8331,-1.832,-1.8304,-1.8302,-1.8301,-1.8294,-1.8303,-1.8297,-1.83,-1.8299,-1.8296,-1.8298,-1.83,-1.827,-1.827,-1.827,0,0,-1.8459,-1.8448,-1.8449,-1.8438,-1.8421,-1.8407,-1.8407,-1.8387,-1.8379,-1.8373,-1.8355,-1.8348,-1.8335,-1.8324,-1.8316,-1.8332,-1.8318,-1.8329,-1.8344,-1.8342,-1.8344,-1.8345,-1.8349,-1.8351,-1.833,-1.833,-1.833,0,-1.8478,-1.847,-1.8451,-1.8446,-1.8439,-1.8417,-1.8416,-1.8407,-1.8388,-1.8383,-1.8376,-1.8357,-1.8345,-1.8339,-1.8342,-1.8337,-1.8335,-1.8331,-1.8345,-1.8346,-1.8348,-1.8351,-1.8353,-1.8332,-1.8331,-1.8331,-1.8331,0,-1.8493,-1.8488,-1.849,-1.8472,-1.8465,-1.8463,-1.8442,-1.8437,-1.8424,-1.841,-1.8404,-1.8388,-1.8375,-1.8372,-1.836,-1.8364,-1.836,-1.8349,-1.8336,-1.8352,-1.8355,-1.8356,-1.8334,-1.8333,-1.8333,-1.8332,0,0,-1.8535,-1.8505,-1.8506,-1.8496,-1.8476,-1.847,-1.8466,-1.8453,-1.8448,-1.8435,-1.843,-1.8418,-1.8407,-1.8399,-1.8385,-1.8383,-1.8393,-1.8372,-1.8371,-1.8375,-1.8394,-1.8402,-1.8404,-1.8384,-1.8384,-1.8385,-1.8395,0,-1.8553,-1.8545,-1.8526,-1.8523,-1.8516,-1.8494,-1.849,-1.8476,-1.8463,-1.8454,-1.8439,-1.843,-1.8417,-1.8412,-1.8409,-1.8393,-1.8397,-1.8392,-1.8378,-1.8378,-1.8382,-1.8405,-1.8414,-1.8425,-1.8396,-1.8396,-1.8396,0,-1.8574,-1.8561,-1.8558,-1.8535,-1.8531,-1.8528,-1.8513,-1.8506,-1.8488,-1.8479,-1.8468,-1.8452,-1.8445,-1.8433,-1.8422,-1.8419,-1.8412,-1.8403,-1.8403,-1.84,-1.8388,-1.8402,-1.8428,-1.8429,-1.8398,-1.8398,-1.8398,0,-1.8602,-1.8585,-1.858,-1.8573,-1.8547,-1.8544,-1.8533,-1.8516,-1.8508,-1.8494,-1.8489,-1.8475,-1.8467,-1.8456,-1.8436,-1.8429,-1.8426,-1.8413,-1.8416,-1.8417,-1.8417,-1.8417,-1.844,-1.8414,-1.8414,-1.8414,-1.8414,0,-1.8624,-1.8622,-1.8592,-1.8589,-1.8585,-1.8563,-1.856,-1.8547,-1.8531,-1.8524,-1.8504,-1.8497,-1.8472,-1.8462,-1.8446,-1.8438,-1.8435,-1.8426,-1.8422,-1.8427,-1.8428,-1.8422,-1.8421,-1.8414,-1.8414,-1.8414,-1.8414,0,-1.8656,-1.8636,-1.8628,-1.8603,-1.8597,-1.8595,-1.8574,-1.8569,-1.8553,-1.8544,-1.8541,-1.8517,-1.8504,-1.8483,-1.8464,-1.8454,-1.8448,-1.8441,-1.8454,-1.8451,-1.8455,-1.8454,-1.8474,-1.8475,-1.845,-1.845,-1.845,0,-1.867,-1.8668,-1.8642,-1.8636,-1.8625,-1.8616,-1.8607,-1.8585,-1.8576,-1.8555,-1.8553,-1.8538,-1.8525,-1.8505,-1.8486,-1.8471,-1.8463,-1.8471,-1.8461,-1.8465,-1.8461,-1.8461,-1.846,-1.8473,-1.8474,-1.8474,-1.8474,0,-1.8698,-1.8687,-1.8676,-1.8661,-1.8651,-1.8638,-1.8624,-1.8619,-1.8593,-1.8585,-1.8571,-1.8561,-1.8541,-1.8526,-1.8508,-1.8495,-1.848,-1.8477,-1.8477,-1.8483,-1.8489,-1.8484,-1.8459,-1.8477,-1.8477,-1.8477,-1.8476,-1.8476,-1.872,-1.8716,-1.8697,-1.8685,-1.8671,-1.8658,-1.8652,-1.8635,-1.8623,-1.8605,-1.8592,-1.8579,-1.8559,-1.8533,-1.8521,-1.8509,-1.8503,-1.8503,-1.8503,-1.8503,-1.8504,-1.8491,-1.8506,-1.8506,-1.8506,-1.8506,-1.8506,0,-1.8745,-1.8731,-1.872,-1.87,-1.869,-1.8676,-1.8659,-1.8651,-1.8639,-1.8623,-1.861,-1.8593,-1.8578,-1.8556,-1.8539,-1.8534,-1.8526,-1.853,-1.853,-1.8527,-1.8512,-1.8513,-1.8536,-1.8536,-1.8536,-1.8536,-1.8536,-1.8536,-1.8757,-1.8749,-1.8736,-1.8721,-1.8707,-1.8693,-1.8685,-1.8671,-1.8658,-1.864,-1.8627,-1.8613,-1.8593,-1.8574,-1.8559,-1.8553,-1.8547,-1.8553,-1.8545,-1.8531,-1.8528,-1.8525,-1.8527,-1.8552,-1.8552,-1.856,-1.856,-1.8561]}]]